Preview of NWS' New Version of Forecast
This preview is not operational and should not be used for support decisions.

Regional Weather Roundup (RWR)

Issued by National Weather Service (NWS)

                            
000
ASUS44 KJAN 161310
RWRMS 

MISSISSIPPI HOURLY WEATHER ROUNDUP
NATIONAL WEATHER SERVICE JACKSON MS
800 AM CDT MON SEP 16 2019

NOTE: "FAIR: INDICATES FEW OR NO CLOUDS BELOW 12,000 FEET WITH NO
SIGNIFICANT WEATHER AND/OR OBSTRUCTIONS TO VISIBILITY.

MSZ001>002-007>008-010>013-018>021-025>028-034>036-161400-
NORTHWEST MISSISSIPPI
  
CITY           SKY/WX    TMP DP  RH WIND       PRES   REMARKS
BATESVILLE       N/A     72  72 100 CALM      30.10S                  
CLARKSDALE       N/A     75  75 100 CALM      30.11R                  
CLEVELAND      FAIR      76  75  95 NE5       30.09R                  
GREENWOOD      FAIR      78  71  79 CALM      30.08R                  
GREENVILLE     FAIR      76  71  85 N3        30.08R                  
OLIVE BRANCH   SUNNY     77  70  78 CALM      30.12R                  
OXFORD         FAIR      70  70 100 CALM      30.13R                  
TUNICA           N/A     72  70  94 CALM      30.11S                  
WINONA         FAIR      74  72  95 CALM      30.10R                  
$$

MSZ003>006-009-014>017-022>024-029>033-037>039-161400-
NORTHEAST MISSISSIPPI
  
CITY           SKY/WX    TMP DP  RH WIND       PRES   REMARKS
ABERDEEN       FAIR      72  54  53 CALM      30.12R                  
COLUMBUS AFB   FAIR      74  71  91 CALM      30.09R                  
CORINTH        FAIR      70  70 100 CALM      30.12R                  
GOLDN TRIANGLE FAIR      75  73  93 N3        30.10R                  
STARKVILLE       N/A     68  68 100 CALM      30.11R                  
TUPELO         FAIR      76  70  82 N3        30.11R                  
$$

MSZ040-058-161400-
CENTRAL MISSISSIPPI
  
CITY           SKY/WX    TMP DP  RH WIND       PRES   REMARKS
JACKSON INTL   FAIR      78  70  76 CALM      30.07R                  
JACKSON HAWKNS FAIR      78  72  81 CALM      30.07R                  
MADISON        FAIR      72  72 100 CALM      30.08S                  
MERIDIAN KEY   FAIR      77  71  82 N3        30.08R                  
MERIDIAN NAS   FAIR      74  70  87 CALM      30.09R                  
RAYMOND        FAIR      72  72 100 CALM      30.07R                  
VICKSBURG VKS  SUNNY     75  75 100 CALM      30.07R                  
$$

MSZ059>079-161400-
SOUTH MISSISSIPPI
  
CITY           SKY/WX    TMP DP  RH WIND       PRES   REMARKS
BROOKHAVEN     FAIR      73  72  94 MISG      30.08R                  
HATTIESBURG    FAIR      74  70  87 CALM      30.07R                  
LAUREL         SUNNY     74  71  89 CALM      30.07R                  
MCCOMB         FAIR      77  69  76 NE5       30.05R                  
NATCHEZ        FAIR      72  70  93 N5        30.06R                  
PINE BELT      FAIR      76  72  87 NE3       30.07R                  
$$

MSZ080>082-161400-
COASTAL MISSISSIPPI
  
CITY           SKY/WX    TMP DP  RH WIND       PRES   REMARKS
BAY ST LOUIS   MOSUNNY   77  72  83 E6        30.01R                  
BILOXI         PTSUNNY   79  70  73 E7        30.02R                  
PASCAGOULA     FAIR      79  70  74 NE6       30.03R                  
GULFPORT       FAIR      79  69  71 NE6       30.01R                  
$$

LAZ007>009-015>016-023>026-161400-
NORTHEAST LOUISIANA
  
CITY           SKY/WX    TMP DP  RH WIND       PRES   REMARKS
BASTROP        FAIR      74  73  98 CALM      30.08R                  
TALLULAH/VBURG FAIR      78  72  81 CALM      30.07R                  
VIDALIA        FAIR      76  72  85 NE3       30.04R                  
$$